Regional Weather Roundup
Issued by NWS

Home | Current Version | Previous Version | Graphics & Text | Print | Product List | Glossary On
Versions: 1 2 3 4 5 6 7 8 9 10 11 12 13 14 15 16 17 18 19 20 21 22 23 24 25 26 27 28 29 30 31 32 33 34 35 36 37 38 39 40 41 42 43 44 45 46 47 48 49 50
000
ASUS43 KDTX 252110
RWRMI
MICHIGAN HOURLY REGIONAL WEATHER ROUNDUP
NATIONAL WEATHER SERVICE DETROIT/PONTIAC MI
ISSUED BY NATIONAL WEATHER SERVICE GRAND RAPIDS MI
500 PM EDT TUE JUL 25 2017

NOTE: "FAIR" INDICATES FEW OR NO CLOUDS BELOW 12,000 FEET WITH NO
SIGNIFICANT WEATHER AND/OR OBSTRUCTION TO VISIBILITY.

MIZ047>049-052>055-059>063-066>070-074>076-081>083-252200-
SOUTHEAST LOWER MICHIGAN

CITY           SKY/WX    TMP DP  RH WIND       PRES   REMARKS
ADRIAN         SUNNY     77  54  44 VRB6      30.22F
ALMA           MOSUNNY   78  46  31 S9        30.22S
ANN ARBOR      MOSUNNY   80  56  43 E8        30.21S
BAD AXE        SUNNY     76  54  45 SE3       30.23F
DETROIT CITY   PTSUNNY   75  54  47 SE10      30.22S
DETROIT        PTSUNNY   79  54  41 E8        30.22S
FLINT          MOSUNNY   80  51  36 E3        30.21F
GROSSE ILE     MOSUNNY   76  56  49 E6        30.21S
HILLSDALE      CLOUDY    77  50  38 W3        30.22F
HOWELL         MOSUNNY   77  51  41 N6        30.22F

CITY           SKY/WX    TMP DP  RH WIND       PRES   REMARKS
JACKSON        SUNNY     80  48  32 SW5       30.21F
LANSING        PTSUNNY   80  52  37 NE6       30.22F
MASON          MOSUNNY   76  53  45 E3        30.22F
MONROE         MOSUNNY   77  58  51 N3        30.21S
MT. CLEMENS    PTSUNNY   77  53  43 E8        30.20F
PONTIAC        PTSUNNY   77  55  46 S7        30.21F
PORT HOPE        N/A     71  56  58 NE6       30.22F
PORT HURON     SUNNY     75  55  50 CALM      30.22S
TRI CITIES     MOSUNNY   79  57  46 S3        30.22F
YPSILANTI      MOSUNNY   82  56  40 VRB6      30.21F
$$
MIZ043>046-050>051-056>058-064>065-071>073-077>080-252200-
SOUTHWEST LOWER MICHIGAN

CITY           SKY/WX    TMP DP  RH WIND       PRES   REMARKS
BATTLE CREEK   MOSUNNY   80  52  37 E9        30.21F
BENTON HARBOR  SUNNY     76  58  53 NW7       30.20F
BIG RAPIDS     PTSUNNY   77  54  45 S7        30.20F
COLDWATER      SUNNY     77  51  40 CALM      30.21F
HOLLAND        SUNNY     78  58  49 VRB7      30.21F
GRAND RAPIDS   MOSUNNY   80  51  36 S7        30.20F
KALAMAZOO      SUNNY     80  48  32 S8        30.21F
MARSHALL       SUNNY     77  52  40 CALM      30.21F
MOUNT PLEASANT SUNNY     80  47  32 SE5       30.21S
MUSKEGON       PTSUNNY   77  57  50 W8        30.20F
STURGIS        SUNNY     76  56  49 E7        30.21S
$$
MIZ016>042-252200-
NORTHERN LOWER MICHIGAN

CITY           SKY/WX    TMP DP  RH WIND       PRES   REMARKS
ALPENA         SUNNY     76  57  51 E12       30.20F
BEAVER ISLAND  SUNNY     76  57  52 SW10      30.19F
BELLAIRE       SUNNY     79  55  44 NW5       30.18S
CADILLAC       MOSUNNY   80  52  38 SW6       30.20F
CHARLEVOIX     SUNNY     77  53  44 SW10      30.22F
GAYLORD        PTSUNNY   80  52  37 W7        30.20F
HOUGHTON LAKE  MOSUNNY   78  53  41 SW3       30.21F
MANISTEE       SUNNY     77  60  55 S9G17     30.17F
OSCODA         SUNNY     74  53  47 S9        30.21F
PELLSTON       SUNNY     79  56  45 W7        30.19S
TRAVERSE CITY  PTSUNNY   82  56  40 W9        30.16F
LUDINGTON      PTSUNNY   73  63  68 SW10      30.18F
$$
MIZ007>008-015-252200-
EASTERN UPPER MICHIGAN

CITY           SKY/WX    TMP DP  RH WIND       PRES   REMARKS
KINROSS        SUNNY     76  57  51 VRB5      30.18F
MACKINAC ISLAN SUNNY     73  56  54 W6        30.19F
NEWBERRY       HAZE      73  57  56 SW15G24   30.16S VSB 1/2
S. S. MARIE    SUNNY     78  55  44 S14G21    30.17S
$$
MIZ004>006-011>014-085-252200-
CENTRAL UPPER MICHIGAN

CITY           SKY/WX    TMP DP  RH WIND       PRES   REMARKS
MANISTIQUE     SUNNY     70  67  88 S9        30.15F
ESCANABA       MOSUNNY   72  64  76 SE12      30.11F
MENOMINEE      PTSUNNY   75  62  64 S14       30.11F
SAWYER-GWINN   MOSUNNY   77  54  44 S16G23    30.10F
$$
MIZ001>003-009>011-084-252200-
WESTERN UPPER MICHIGAN

CITY           SKY/WX    TMP DP  RH WIND       PRES   REMARKS
IRON MOUNTAIN  CLOUDY    76  56  49 S9        30.09F
HOUGHTON       MOSUNNY   79  47  32 S9        30.03F
COPPER HARBOR    N/A     74  54  49 VRB6      30.02F
IRONWOOD       CLOUDY    75  60  59 S8        30.03S
$$

ABBREVIATIONS USED IN REMARKS
   TC - TEMPERATURE IN CELSIUS
  WCI - WIND CHILL INDEX
   HX - HEAT INDEX
  VSB - VISIBILITY





USA.gov is the U.S. government's official web portal to all federal, state and local government web resources and services.